Location: Berkeley
(37.8716°N, 122.2727°W)
Time: 01:47:15
(UTC-07:00)

ISS - Visible Passes

Search period start: 27 June 2017 00:00
Search period end: 07 July 2017 00:00
Orbit: 401 x 408 km, 51.6° (Epoch: 27 June)

Date Brightness Start Highest point End Pass type
(mag) Time Alt. Az. Time Alt. Az. Time Alt. Az.
03 Jul -1.9 05:05:03 10° S 05:07:42 23° SE 05:10:20 10° ENE visible
04 Jul -1.2 04:14:28 10° SSE 04:15:37 11° SE 04:16:47 10° ESE visible
05 Jul -3.6 04:56:48 14° SW 04:59:26 63° SE 05:02:40 10° NE visible
06 Jul -2.6 04:06:36 27° SSE 04:07:13 29° SE 04:10:07 10° ENE visible
